Theta_e
314 315 314 315 313 309 313 313 312 314 316 318 320 320 320 321 322 318 330 324 320 320 320 322 328 333 333 332 331 329 328 328 330 330 331 334 334 336 337 333 330 328 327 326 327 329 330 331 333
311 313 314 315 311 311 310 312 315 314 317 319 320 323 325 325 329 326 328 321 320 319 319 321 325 332 334 333 332 331 329 328 328 327 327 330 334 336 335 334 332 332 328 326 326 328 329 330 331
311 314 316 309 308 310 310 313 314 316 317 319 318 320 324 329 329 323 325 321 319 319 320 321 322 327 333 335 334 333 331 329 328 327 326 328 332 334 334 333 333 331 329 328 330 329 329 330 330
313 317 314 312 312 311 311 315 315 315 319 318 318 318 325 328 329 323 324 320 319 320 320 320 320 322 331 335 335 334 333 332 330 328 327 327 329 332 333 332 327 330 328 328 327 328 329 330 330
316 317 311 312 311 311 312 314 316 315 316 317 318 318 327 329 329 325 323 320 319 320 320 320 320 321 325 333 335 335 335 334 333 330 328 327 329 330 329 329 327 325 327 325 326 327 329 330 330
316 313 311 311 310 312 312 316 316 315 317 317 317 321 326 328 329 328 322 320 320 320 319 320 321 321 323 327 333 335 335 335 334 333 330 328 328 328 328 326 324 321 324 323 320 327 329 330 329
311 309 312 312 311 313 312 316 315 315 315 316 319 323 326 327 329 331 323 322 322 323 320 319 320 320 322 325 328 331 333 334 335 335 332 330 328 328 326 323 322 327 328 326 322 328 329 328 328
314 309 312 310 312 313 314 316 317 316 316 317 322 323 324 322 328 332 326 325 325 324 321 320 320 320 322 323 327 330 332 334 334 334 334 331 328 327 327 324 328 328 326 326 327 329 329 326 327
315 311 311 313 311 313 314 315 316 317 316 317 318 319 324 325 328 333 329 326 326 323 320 321 321 320 321 322 327 336 335 336 336 335 334 334 332 329 328 329 329 328 327 325 325 327 323 328 327
312 311 310 312 311 313 314 314 314 316 314 316 316 318 319 320 329 328 328 326 323 321 319 319 320 320 321 321 322 332 336 338 335 335 334 333 332 329 329 331 331 329 327 327 325 323 327 327 327
315 314 313 313 314 314 313 314 316 315 313 316 316 318 318 321 329 331 329 327 324 322 320 319 319 322 323 325 323 325 332 332 335 334 333 331 332 330 330 330 327 327 327 326 324 320 322 326 324
314 312 315 315 316 316 314 315 314 314 316 318 319 319 317 318 326 327 328 327 326 324 321 320 320 324 326 326 323 323 329 325 332 333 331 334 328 329 329 327 325 325 326 327 323 320 320 324 323
312 314 315 315 316 316 316 314 314 313 318 319 319 318 318 317 318 322 322 327 328 326 324 322 322 325 327 327 327 325 323 323 325 328 328 330 330 328 328 326 325 327 326 326 324 322 326 324 323
310 311 312 315 316 315 315 315 315 316 318 318 318 319 319 317 317 319 325 323 326 328 327 324 323 326 328 329 328 327 325 322 324 326 328 328 328 329 326 327 325 327 327 325 321 322 325 325 325
312 311 311 311 314 313 315 313 313 316 317 317 318 318 318 317 317 318 319 320 321 323 329 327 324 327 329 329 329 328 326 324 324 325 329 330 330 329 328 326 326 325 326 319 321 322 325 325 322
315 314 314 314 312 314 316 317 316 318 317 316 317 318 318 318 318 318 319 319 319 322 325 328 326 327 329 330 330 327 325 325 324 325 326 328 329 328 327 327 326 324 324 318 321 323 325 322 320
311 312 314 315 313 315 314 316 315 316 316 315 316 316 316 316 317 317 318 319 318 318 321 327 327 327 329 330 329 327 325 324 323 326 327 327 329 328 327 327 326 326 324 320 320 323 324 321 320
312 314 313 314 314 314 313 314 312 315 312 312 313 314 315 316 317 317 318 319 319 318 318 325 328 327 329 330 329 326 324 324 323 325 325 328 328 328 328 327 326 326 326 324 320 323 321 320 320
311 312 313 312 312 312 311 311 309 310 310 309 311 313 315 316 316 317 317 318 319 317 317 321 327 328 329 330 329 326 324 325 324 324 324 327 328 327 327 326 326 324 323 319 316 322 320 319 320
310 311 311 310 310 311 311 312 309 307 307 310 312 314 316 316 316 316 316 317 318 318 318 320 325 328 329 330 329 327 324 325 323 324 324 325 326 325 325 326 324 324 319 316 319 320 321 319 320
307 309 308 310 307 305 306 307 306 307 309 313 315 315 315 316 317 319 318 317 318 319 318 318 324 328 329 330 328 326 322 321 321 323 323 324 324 324 326 326 325 323 322 315 314 320 321 319 320
307 305 307 306 305 304 307 306 308 308 309 311 312 315 315 317 321 320 319 317 318 320 320 318 326 328 330 329 328 326 322 319 319 321 323 324 324 325 327 325 325 324 320 314 310 315 321 319 319
305 305 305 305 304 304 310 306 307 310 311 311 311 313 318 321 319 320 318 318 318 321 321 321 326 330 330 329 328 326 321 318 320 321 323 323 326 324 326 324 325 324 320 313 310 315 319 318 319
308 308 307 307 305 308 307 307 309 310 312 314 314 318 320 318 318 319 320 317 318 321 322 324 328 330 329 328 327 325 320 318 320 321 321 321 322 324 323 325 326 323 320 310 312 314 317 318 319
308 308 312 314 314 313 309 310 311 312 313 317 318 318 317 317 317 318 319 320 319 321 322 326 329 329 328 327 326 324 319 319 321 320 320 320 321 322 322 323 324 325 322 319 310 311 316 318 319
306 307 311 315 315 313 314 315 314 315 317 317 317 316 316 317 317 318 318 321 320 322 323 326 328 329 328 327 326 322 318 320 320 320 319 319 319 320 321 322 323 323 321 320 311 308 316 315 317
307 308 308 310 311 314 312 313 312 317 318 317 317 316 316 316 316 317 319 324 321 321 323 324 327 328 328 327 326 320 318 320 319 319 319 319 320 319 319 321 322 322 321 316 313 310 311 313 315
306 307 311 310 315 314 312 313 313 316 317 318 317 316 316 316 316 317 318 322 324 324 324 324 326 328 328 327 325 319 318 320 320 320 320 320 319 319 319 320 320 321 318 317 313 312 312 313 312
307 307 310 310 311 313 313 311 311 316 316 318 318 317 316 316 315 316 320 321 325 324 323 323 324 327 328 327 325 317 320 320 320 320 320 320 319 319 319 319 319 318 316 316 314 316 315 313 314
307 309 308 310 312 312 312 312 318 314 316 317 318 316 315 315 315 318 320 322 326 325 324 325 324 326 327 327 324 316 320 320 320 320 320 320 321 320 319 319 318 317 317 316 317 315 315 314 314
Wind_Speed
8 10 8 6 3 4 3 6 3 5 6 3 5 4 7 5 6 4 21 18 16 13 12 12 12 13 16 18 17 16 16 15 17 17 18 19 18 21 22 22 21 22 21 19 19 20 19 17 19
9 12 8 4 4 2 5 4 5 6 10 7 3 6 2 2 5 11 21 21 16 14 13 13 13 14 15 18 18 18 17 16 16 17 18 19 21 21 23 22 19 19 21 19 19 20 20 19 18
13 12 4 4 4 6 5 6 6 4 6 4 2 2 3 2 8 22 15 20 19 16 14 14 13 14 15 17 19 19 18 17 17 17 18 19 21 21 22 20 17 18 16 15 18 19 19 21 20
11 6 4 3 7 6 6 4 2 10 6 5 5 4 4 6 9 17 17 20 20 18 16 14 13 14 17 19 20 21 20 19 19 20 22 22 23 24 24 23 18 14 12 13 15 18 20 22 19
13 4 2 2 6 5 7 8 7 6 4 8 6 4 3 9 8 16 20 21 21 19 17 14 15 15 16 19 21 22 22 22 22 22 23 23 25 26 25 28 19 22 16 15 15 20 22 23 19
4 4 2 6 6 4 5 13 8 5 17 20 5 6 4 13 12 18 22 21 20 17 16 15 15 14 15 17 20 22 23 23 23 23 23 24 26 26 26 22 24 21 16 11 13 21 23 22 20
6 4 5 4 5 4 5 5 4 3 8 5 5 8 5 13 17 18 23 21 21 19 16 15 15 15 16 17 18 20 22 23 23 23 24 24 24 24 24 25 25 19 21 28 23 27 26 24 23
6 4 5 6 5 7 6 3 5 5 5 15 6 4 5 14 20 20 24 22 22 20 18 17 17 16 16 17 19 21 22 21 21 22 24 23 21 22 24 25 19 14 22 23 28 31 32 26 25
8 2 5 7 8 6 5 1 3 8 4 20 3 11 8 8 23 24 26 26 25 23 21 20 19 17 16 17 20 21 22 22 21 20 19 20 21 26 26 22 19 19 24 25 26 27 27 28 24
4 5 11 6 7 6 2 2 4 5 11 13 19 14 11 11 23 28 31 31 30 28 25 21 20 18 17 17 18 23 25 24 24 24 24 24 26 26 28 27 26 31 28 30 30 28 26 27 27
7 8 3 7 14 13 3 6 8 2 6 22 15 27 20 13 24 31 32 32 31 30 26 22 21 18 18 17 18 21 26 27 27 27 28 25 25 27 32 29 28 32 31 30 31 30 31 31 29
5 8 11 7 18 8 6 6 4 10 14 29 25 29 27 21 24 28 33 33 33 31 28 25 23 20 18 18 17 18 25 23 27 27 26 28 29 30 30 26 26 33 33 36 35 36 39 34 31
6 4 9 20 23 17 21 17 13 10 28 29 23 23 22 22 25 28 25 32 35 35 31 29 26 23 19 20 18 18 19 20 21 25 29 30 30 27 28 25 25 27 39 45 40 42 40 37 33
3 14 21 20 23 15 10 20 8 10 19 24 20 22 22 20 24 27 33 30 35 36 35 32 30 26 22 23 20 19 19 18 20 23 27 28 28 28 27 25 24 29 37 46 40 41 41 38 31
10 10 8 7 7 7 6 11 13 26 25 24 25 22 21 17 17 22 23 27 32 35 38 37 33 30 26 25 22 21 20 19 20 21 23 25 25 26 26 23 22 21 30 31 37 40 41 37 30
3 3 3 3 10 7 11 25 3 10 14 13 13 12 10 13 14 16 21 25 31 38 41 41 37 34 29 26 23 22 22 22 20 22 22 23 24 25 27 27 22 31 35 35 39 43 39 34 31
3 4 5 2 7 5 10 12 2 2 16 14 13 15 20 23 23 22 21 26 30 34 42 44 41 38 31 27 24 23 23 23 22 23 21 22 24 24 28 29 25 36 42 44 44 44 40 35 32
7 4 4 4 2 3 8 16 6 17 12 17 22 25 25 26 27 25 26 26 26 25 34 44 43 40 33 27 25 25 25 25 22 22 22 26 26 25 27 27 26 38 45 53 48 45 39 36 31
2 5 5 1 3 3 7 14 6 12 17 12 21 25 25 25 30 31 32 31 28 25 31 40 44 42 35 32 29 28 29 28 25 24 25 27 27 26 30 23 25 41 50 50 47 46 41 35 31
6 6 5 4 6 5 8 25 9 7 8 19 23 24 22 26 32 33 32 32 30 23 30 37 44 42 38 34 29 28 27 31 29 27 28 29 25 27 27 23 20 36 40 40 40 45 45 41 35
6 9 3 8 4 3 5 19 9 7 8 19 18 21 20 24 30 33 31 30 28 26 31 36 45 43 40 34 30 26 25 28 28 29 29 28 25 24 27 31 33 41 41 45 46 46 49 45 40
10 8 9 6 2 3 4 8 0 6 6 4 13 18 20 22 34 34 29 27 30 29 32 37 42 43 41 35 30 27 26 26 28 28 28 26 26 24 30 34 38 40 40 47 48 46 50 46 46
5 8 8 6 5 1 3 4 5 3 7 9 7 16 18 23 29 29 29 27 30 31 33 37 40 44 40 33 29 25 24 23 23 25 28 26 24 14 38 31 36 40 42 47 47 50 54 49 47
5 3 3 2 3 3 8 7 3 4 2 3 3 13 18 23 33 33 30 30 32 30 33 37 42 43 38 31 28 25 22 22 22 22 25 26 30 30 21 31 33 43 46 46 47 51 52 50 48
3 5 1 1 1 5 6 5 8 5 4 4 6 14 19 24 31 38 35 28 32 32 33 40 43 43 37 32 27 24 22 20 20 19 20 21 23 26 30 26 38 39 49 51 46 48 50 44 45
7 7 4 5 4 3 4 6 5 4 5 7 6 8 19 33 38 42 39 32 36 36 35 41 44 43 39 33 27 24 21 19 16 16 16 16 19 23 25 27 31 37 50 54 54 49 52 42 40
5 5 7 2 1 1 4 6 5 4 5 6 10 17 23 33 42 44 46 33 31 41 39 39 45 44 40 32 26 23 21 21 19 18 17 17 15 12 16 21 26 35 38 49 51 56 53 46 38
6 5 3 1 3 5 4 3 5 2 5 6 7 13 22 35 46 47 42 32 26 34 33 33 42 45 39 30 26 23 22 21 19 18 17 16 10 6 11 17 26 34 41 47 51 52 50 47 44
2 3 4 4 5 3 7 5 5 4 4 5 1 9 19 33 50 47 37 31 25 26 30 31 40 43 37 29 25 24 23 22 22 20 19 16 12 8 9 14 20 30 37 42 50 50 47 47 44
3 2 6 3 3 2 2 11 5 5 8 6 5 3 17 31 43 42 40 23 23 24 28 32 38 41 34 28 24 25 24 23 24 23 21 19 15 15 15 18 23 28 31 44 50 44 45 44 46
Wind_Direction
213 201 166 138 62 68 260 259 270 284 311 219 148 156 185 151 163 207 148 159 149 147 148 158 166 173 181 189 193 193 189 178 170 168 166 174 180 177 175 174 175 174 173 175 176 177 177 171 164
192 171 147 124 103 110 261 243 234 221 259 314 140 125 83 203 154 151 157 161 156 157 162 161 158 170 183 192 196 198 196 193 186 178 179 179 183 184 178 177 183 183 179 181 180 184 183 178 171
170 158 155 113 139 186 220 213 202 259 315 197 32 260 198 221 174 164 171 165 165 166 166 158 153 167 181 194 200 204 203 200 198 196 195 190 190 189 186 184 185 193 193 175 177 182 185 178 174
158 149 71 105 226 249 221 221 238 331 352 230 194 255 229 206 172 183 179 173 171 170 167 158 162 172 181 194 200 204 208 209 208 204 199 196 195 194 190 189 173 199 191 179 182 188 184 179 181
159 137 90 255 244 253 268 263 284 289 270 249 193 219 239 207 193 189 180 179 176 175 176 176 182 185 188 194 201 206 210 213 214 211 207 204 199 199 197 186 229 191 189 174 185 192 188 180 179
127 122 99 235 245 227 261 267 270 272 284 280 217 166 219 203 194 192 188 184 184 187 183 191 193 198 201 202 202 209 215 217 218 217 214 209 206 204 200 212 190 183 177 205 198 204 188 182 181
142 105 211 234 259 279 228 217 197 259 276 273 241 152 216 213 202 199 191 191 194 194 199 203 207 210 209 213 211 215 219 219 219 220 217 215 214 207 203 192 189 215 246 224 191 197 196 186 184
189 121 173 228 227 272 224 220 193 59 313 340 182 190 225 233 209 198 193 201 202 203 205 214 217 223 219 221 218 218 224 224 221 222 217 217 214 216 207 195 214 219 193 193 188 194 194 185 185
173 128 209 225 174 229 197 90 192 316 267 326 286 315 277 267 207 199 201 209 210 209 211 218 225 230 228 227 219 214 223 224 220 225 230 226 225 221 208 212 231 223 211 196 193 197 200 185 193
175 196 208 220 198 215 225 329 319 330 333 305 303 318 296 298 211 208 210 215 215 214 214 221 229 231 233 234 230 214 215 223 223 224 225 228 221 217 218 230 250 235 226 208 198 193 192 189 189
211 235 205 249 235 243 237 262 274 283 302 280 297 310 304 289 220 215 218 223 228 221 218 226 228 229 232 234 232 219 214 222 222 223 229 228 226 225 233 244 236 226 216 203 194 190 200 193 193
231 229 217 256 240 252 257 260 238 208 257 282 296 300 295 273 236 231 230 233 233 230 227 229 229 230 230 230 221 222 218 225 223 223 229 225 237 235 240 238 237 224 214 206 193 194 196 193 192
232 227 240 245 253 246 263 261 249 232 275 283 291 288 290 278 257 247 250 244 238 234 232 231 230 233 227 234 220 222 227 227 225 219 227 229 232 238 237 239 238 227 210 206 196 194 188 189 189
230 231 246 246 255 254 249 265 258 250 267 281 277 284 284 277 263 254 243 247 246 242 237 235 233 233 228 236 226 231 229 231 223 222 226 232 232 230 230 240 231 218 193 189 185 190 187 189 194
261 261 267 223 222 236 243 263 239 264 268 261 268 268 274 275 274 262 264 265 264 255 242 237 235 235 230 235 228 232 233 233 224 221 221 228 229 228 230 220 217 231 186 173 186 187 188 191 192
253 228 214 237 185 224 183 262 283 275 243 260 282 286 278 286 288 283 276 282 270 256 248 239 236 235 231 233 228 233 232 232 229 224 221 222 224 225 223 213 210 191 188 184 188 192 186 190 188
257 240 211 280 196 185 194 267 244 252 316 303 299 293 298 301 302 298 299 296 285 255 248 239 235 235 230 230 229 233 233 231 231 227 221 223 225 225 221 220 222 206 196 187 191 189 189 188 184
212 217 237 213 299 237 256 268 285 291 294 290 292 292 293 297 302 306 304 297 296 252 245 241 234 232 227 227 228 232 232 229 228 225 234 228 225 228 227 228 240 227 216 192 187 191 185 189 179
200 225 220 180 231 347 258 270 251 279 290 276 283 289 287 295 303 304 304 305 304 261 245 236 230 226 221 222 224 228 231 225 226 226 230 230 230 237 234 235 234 210 188 174 182 190 189 187 186
205 233 244 265 244 264 285 280 279 241 248 268 275 282 282 296 307 312 307 301 291 276 250 236 228 222 221 223 228 231 234 230 226 228 231 232 237 245 226 228 214 185 168 178 184 194 189 191 188
194 213 170 245 324 293 287 284 249 258 243 254 261 272 291 303 322 315 313 293 280 276 249 236 226 218 219 220 225 227 230 235 228 224 227 230 229 239 240 223 201 184 185 184 185 199 196 190 186
228 179 203 229 139 250 133 290 89 225 246 264 283 292 309 329 332 315 306 284 268 268 247 234 224 215 215 219 223 226 233 234 234 222 220 221 228 224 241 229 202 193 193 188 186 201 202 194 187
216 179 191 207 187 134 167 283 287 16 300 280 296 316 338 334 337 337 304 282 260 255 244 230 218 213 215 217 222 228 230 239 239 230 218 217 215 229 229 227 216 200 198 191 196 201 199 198 191
175 150 155 80 125 259 180 185 203 199 200 335 342 344 345 337 340 338 331 290 261 248 240 223 213 211 216 216 221 228 232 238 222 222 221 217 216 219 210 217 216 208 199 202 203 201 200 198 199
157 95 198 233 198 236 189 180 259 283 332 63 12 346 340 339 339 338 334 303 257 238 234 220 213 212 215 217 221 226 230 232 229 223 224 223 216 215 226 224 220 221 206 206 204 202 200 200 201
185 164 172 201 195 240 165 234 247 135 100 54 13 344 346 351 345 337 330 312 255 238 231 219 215 211 214 216 221 221 225 220 220 215 211 214 216 220 223 228 223 221 213 209 196 197 199 201 206
193 182 188 261 206 322 219 282 290 148 22 33 10 359 348 348 341 331 331 321 247 238 230 223 214 211 215 215 218 218 215 210 212 206 210 215 207 212 215 224 227 226 230 211 196 198 193 202 205
189 173 100 63 208 242 238 248 235 344 336 347 355 357 346 345 338 327 328 313 249 233 229 221 216 212 214 213 216 218 213 208 208 207 210 211 208 207 215 217 223 216 213 209 202 193 198 199 208
104 225 202 168 161 239 282 261 201 172 225 243 344 6 353 350 336 319 316 302 257 232 227 217 211 211 212 213 213 213 208 206 207 207 207 207 208 218 213 213 216 214 205 204 192 194 191 192 206
163 212 174 169 208 221 244 268 170 203 217 192 190 30 355 1 329 314 313 287 238 230 224 212 205 210 211 211 212 210 205 204 207 208 208 202 201 203 193 195 199 205 210 202 201 194 206 209 209